Volver al catálogo

JITIANXING A-03 XING

ActivoCienciaSSO
NORAD 60748·PAYLOAD·🇨🇳 China
Este nombre de satélite aún no ha sido confirmado por fuentes oficiales.

Lanzado Aug 29, 2024 desde Yellow Sea Launch Area

Loading…

Próximos Pases (próximas 24 horas)

TLE

ActualizadoSource: Space-Track

Época: Sep 14, 2026, 22:53 UTC

1 60748U 24153D   26257.95369140  .00016275  00000-0  55936-3 0  9991
2 60748  97.6909  38.7720 0001026 208.2234 151.8951 15.30186219113566

Sigue JITIANXING A-03 XING en tiempo real con AllMySat

Download on the App Store